• Join FlightAware (Why Join?)
  • Login
  • US Flag GB Flag 
22:45 EDT


 

Airport Tracker/Info


-or-


 

Live Flight TrackerFlight Track Log ✈ AWI3680 ✈ 31-Jul-2013 ✈ KPHL - KALB

Flight Track Log - Related Links

Times and Time Zones

All times are in EDT time to prevent confusion due to time zone crossing. See the AWI3680 flight status page for this flight to view local times or setup timezone preferences in your user account.

Time Position Orientation Groundspeed Altitude Reporting Facility
EDT Latitude Longitude Course Direction KTS MPH feet Rate Location/Type
18:36 39.8667 -75.2833 37° Northeast 162 186 700  Level Philadelphia TRACON
18:37 39.8000 -75.3333 210° Southwest 218 251 3,700 2,160 Climbing Philadelphia TRACON
18:38 39.7500 -75.3167 166° South 265 305 5,700 2,100 Climbing Philadelphia TRACON
18:39 39.8075 -74.8208 105° East  Level FlightAware Approximate
18:39 39.7500 -75.2167 90° East 290 334 8,000  Level Philadelphia TRACON
18:40 39.7866 -74.7165 105° East  Level FlightAware Approximate
18:40 39.7667 -75.1167 78° East 310 357 10,200  Level Philadelphia TRACON
18:41 39.8387 -74.6447 37° Northeast  Level FlightAware Approximate
18:42 39.7786 -74.9008 86° East 342 394 12,000  Level New York Center
18:43 39.7919 -74.7558 83° East 357 411 13,600 1,500 Climbing New York Center
18:44 39.8556 -74.6594 49° Northeast 336 387 15,100 1,380 Climbing New York Center
18:45 39.9397 -74.5747 38° Northeast 352 405 16,500 1,260 Climbing New York Center
18:46 40.0236 -74.4900 38° Northeast 364 419 17,700 1,080 Climbing New York Center
18:47 40.1033 -74.4128 37° Northeast 383 441 18,700 960 Climbing New York Center
18:48 40.1978 -74.3172 38° Northeast 391 450 19,700 960 Climbing New York Center
18:49 40.2939 -74.2406 31° Northeast 396 456 20,700 840 Climbing New York Center
18:51 40.4539 -74.1147 31° Northeast 399 459 22,000 960 Climbing Boston Center
18:52 40.5444 -74.0486 29° Northeast 406 467 23,400 960 Climbing Boston Center
18:53 40.6539 -73.9719 28° Northeast 406 467 24,000 240 Climbing Boston Center
18:54 40.7444 -73.9031 30° Northeast 406 467 24,000  Level Boston Center
18:55 40.8394 -73.8064 38° Northeast 411 473 24,000 -180 Level Boston Center
18:56 40.9325 -73.7039 40° Northeast 423 487 23,700 -540 Descending Boston Center
18:57 41.0314 -73.6150 34° Northeast 429 494 23,000 -480 Descending Boston Center
18:58 41.1322 -73.5286 33° Northeast 429 494 22,800 -660 Descending Boston Center
18:59 41.2331 -73.4392 34° Northeast 429 494 21,700 -1,080 Descending Boston Center
19:00 41.3500 -73.4133 North 413 475 20,700 -1,020 Descending Boston Center
19:01 41.4644 -73.4317 353° North 408 470 19,700 -1,020 Descending Boston Center
19:02 41.5789 -73.4503 353° North 408 470 18,700 -1,020 Descending Boston Center
19:03 41.7039 -73.4661 355° North 408 470 17,700 -1,140 Descending Boston Center
19:04 41.8058 -73.4817 354° North 408 470 16,500 -1,680 Descending Boston Center
19:05 41.9244 -73.4975 354° North 403 464 14,300 -2,340 Descending Boston Center
19:06 42.0014 -73.5128 352° North 386 444 12,800 -1,980 Descending Boston Center
19:07 42.1097 -73.5286 354° North 367 422 11,000 -900 Descending Boston Center
19:08 42.2136 -73.5500 351° North 353 406 10,900 -780 Descending Boston Center
19:09 42.2986 -73.6022 336° Northwest 301 346 9,400 -1,560 Descending Boston Center
19:10 42.3731 -73.6428 338° Northwest 287 330 7,800 -1,740 Descending Boston Center
19:11 42.4458 -73.6808 339° North 275 316 5,800 -1,980 Descending Boston Center
19:12 42.5078 -73.7186 336° Northwest 261 300 4,100 -1,980 Descending Boston Center
19:13 42.5719 -73.7594 335° Northwest 256 295 2,300 -1,080 Descending Boston Center
19:14 42.6361 -73.7919 340° North 230 265 2,000 -600 Descending Boston Center
19:15 42.6861 -73.8042 350° North 176 203 1,200 -780 Descending Boston Center
19:16 42.7297 -73.8081 356° North 144 166 500 -720 Descending Boston Center